Location: Buckeye Ditch
(40.9104°N, 122.9517°W)
Time: 22:24:31
(UTC+00:00)

Transit 2A - Pass Details

Date: 21 May 2025
Orbit: 599 x 947 km, 66.7° (Epoch: 20 June)

Event Time Altitude Azimuth Distance (km) Brightness Sun altitude
Rises 14:36:29 0° 208° (SSW) 3,061 8.8 18.3°
Reaches altitude 10° 14:38:53 10° 208° (SSW) 2,098 8.0 18.7°
Maximum altitude 14:43:35 89° 282° (WNW) 641 6.0 19.6°
Drops below altitude 10° 14:48:01 10° 30° (NNE) 1,974 8.8 20.4°
Sets 14:50:13 0° 30° (NNE) 2,864 9.5 20.8°
